Regional Weather Roundup
Issued by NWS

Home | Current Version | Previous Version | Graphics & Text | Print | Product List | Glossary On
Versions: 1 2 3 4 5 6 7 8 9 10 11 12 13 14 15 16 17 18 19 20 21 22 23 24 25 26 27 28 29 30 31 32 33 34 35 36 37 38 39 40 41 42 43 44 45 46 47 48 49 50
000
ASUS45 KSLC 071910
RWRUT

UTAH REGIONAL WEATHER ROUNDUP
NATIONAL WEATHER SERVICE SALT LAKE CITY UT
1200 PM MST WED DEC 07 2016

UTZ001>011-023>025-072000-

NORTHERN UTAH

CITY           SKY/WX    TMP DP  RH WIND       PRES   REMARKS
BRIGHAM CITY     N/A     26   7  44 NW3       30.29S
DUGWAY         MOSUNNY   27   6  41 W3        30.29F
HILL AFB       MOSUNNY   24  12  61 VRB6      30.25S WCI  17
LOGAN          MOSUNNY   24   8  50 CALM      30.28S
OGDEN          MOSUNNY   26   7  44 CALM      30.26S
SALT LAKE CITY PTSUNNY   27  13  55 MISG      30.28S
TOOELE VALLEY  LGT SNOW  27  18  69 NW6       30.29S WCI  20
WENDOVER       SUNNY     27   9  46 E8        30.30S WCI  18
HEBER CITY     MOSUNNY   25   7  46 SE3       30.17S
WEST JORDAN    SUNNY     25  19  77 NW7       30.27S WCI  17

$$

UTZ011>015-024>027-072000-

CENTRAL/NORTHEAST UTAH

CITY           SKY/WX    TMP DP  RH WIND       PRES   REMARKS
PROVO AIRPORT  SUNNY     26  14  60 W7        30.27F WCI  18
MOAB/CANYONLAN SUNNY     34   6  31 W13       30.16F WCI  25
DELTA          SUNNY     28   3  34 N6        30.24F WCI  22
PRICE          SUNNY     27  -1  30 NW10G16   30.13F WCI  17
RICHFIELD      CLOUDY    27  16  63 NE3       30.22
ROOSEVELT      SUNNY     30   1  29 CALM      30.17F
VERNAL         SUNNY     28   5  37 S6        30.15F WCI  22

$$

UTZ013>016-019>022-027-072000-

SOUTHERN UTAH

CITY           SKY/WX    TMP DP  RH WIND       PRES   REMARKS
BRYCE CANYON   SUNNY     21   5  50 NE14      30.08F WCI   8
CEDAR CITY     SUNNY     32   8  36 N12       30.13F WCI  23
MILFORD        SUNNY     30  13  49 N14       30.20F WCI  19
ST GEORGE      CLEAR     43  10  26 CALM      30.20F
HANKSVILLE     MOSUNNY   36   3  25 N12       30.20F WCI  27
KANAB          SUNNY     39   5  24 NE5       30.16F
BLANDING       SUNNY     33   2  27 NW8G17    30.18S WCI  25

$$

REGIONAL REPORTS     COLORADO/ARIZONA

CITY           SKY/WX    TMP DP  RH WIND       PRES   REMARKS
CRAIG, CO      CLOUDY    19   5  54 NW8       30.15R WCI   9
GRAND JUNCTION SUNNY     31  12  45 CALM      30.16S
RIFLE, CO      CLOUDY    27   9  46 NW8       30.14S WCI  19
MONTROSE, CO   MOSUNNY   27   6  41 N12G17    30.15F WCI  17
CORTEZ, CO     SUNNY     33  -3  21 NW9       30.09F WCI  25
COLORADO CITY    N/A     41   9  26 S3        30.15S
PAGE, AZ       SUNNY     42   7  23 E7        30.12F
GRAND CANYON   MOSUNNY   39  26  59 S8        30.08F WCI  33
KINGMAN, AZ    SUNNY     50  12  21 N12       30.10F
FLAGSTAFF, AZ  MOSUNNY   38  26  62 MISG      30.06F

$$

REGIONAL REPORTS    NEVADA/IDAHO/WYOMING

CITY           SKY/WX    TMP DP  RH WIND       PRES   REMARKS
LAS VEGAS, NV  MOSUNNY   51   7  16 N7        30.17F
ELY, NY        SUNNY     23  11  60 VRB6      30.16F WCI  16
ELKO, NV       SUNNY     24   5  44 VRB3      30.23F
POCATELLO, ID  LGT SNOW  18  14  84 W8        30.31R FOG     WCI   8
BURLEY, ID     PTSUNNY   20  15  81 W6        30.29F WCI  12
FORT BRIDGER,    N/A     15   4  62 W7        30.16S WCI   5
EVANSTON, WY   PTSUNNY   12   3  67 W5        30.12S WCI   4
ROCK SPRINGS,  CLOUDY     8   1  73 CALM      30.13S

$$



USA.gov is the U.S. government's official web portal to all federal, state and local government web resources and services.